Weather History for North Las Vegas, NV

Change the Weather History Date:

Tuesday, January 21, 2014

  Actual Average Record
Temperature  
Mean Temperature 52 °F -  
Max Temperature 64 °F 56 °F 69 °F (2009)
Min Temperature 39 °F 34 °F 16 °F (1958)
Degree Days  
Heating Degree Days 14    
Growing Degree Days 2 (Base 50)    
Moisture  
Dew Point 16 °F    
Average Humidity 26    
Maximum Humidity 43    
Minimum Humidity 13    
Precipitation  
Precipitation 0.00 in - - ()
Sea Level Pressure  
Sea Level Pressure 30.33 in    
Wind  
Wind Speed 3 mph (NW)    
Max Wind Speed 9 mph    
Max Gust Speed -    
Visibility 10 miles    
Events      
Averages and records for this station are not official NWS values.
T = Trace of Precipitation, MM = Missing Value Source: NWS Daily Summary

Daily Weather History Graph

Daily Weather History Graph

Search for Another Location

Airport:

Trip Planner

Search our weather history database for the weather conditions in past years. The results will help you decide how hot, cold, wet, or windy it might be!

Date:

Astronomy

Jan. 21, 2014 Rise Set
Actual Time 6:48 AM PST 4:55 PM PST
Civil Twilight 6:21 AM PST 5:23 PM PST
Nautical Twilight 5:49 AM PST 5:54 PM PST
Astronomical Twilight 5:19 AM PST 6:25 PM PST
Moon 10:21 PM PST (1/21) 9:31 AM PST (1/21)
Length of Visible Light 11h 02m
Length of Day
10h 07m
Waning Gibbous, 73% of the Moon is Illuminated
Jan 21
Waning Gibbous
Jan 23
Last Quarter
Jan 30
New
Feb 6
First Quarter
Feb 14
Full

Hourly Weather History & Observations

Time (PST) Temp. Windchill Dew Point Humidity Pressure Visibility Wind Dir Wind Speed Gust Speed Precip Events Conditions
12:53 AM 42.1 °F - 18.0 °F 38% 30.36 in 10.0 mi Calm Calm - N/A   Clear
1:53 AM 42.1 °F 39.2 °F 17.1 °F 37% 30.37 in 10.0 mi WNW 4.6 mph - N/A   Clear
2:53 AM 41.0 °F - 17.1 °F 38% 30.37 in 10.0 mi Calm Calm - N/A   Clear
3:53 AM 41.0 °F 38.0 °F 17.1 °F 38% 30.36 in 10.0 mi NW 4.6 mph - N/A   Clear
4:53 AM 39.9 °F 36.7 °F 17.1 °F 40% 30.37 in 10.0 mi WNW 4.6 mph - N/A   Clear
5:53 AM 39.9 °F 36.7 °F 18.0 °F 41% 30.38 in 10.0 mi NW 4.6 mph - N/A   Clear
6:53 AM 39.0 °F 35.7 °F 18.0 °F 43% 30.40 in 10.0 mi NW 4.6 mph - N/A   Clear
7:53 AM 45.0 °F 43.5 °F 17.1 °F 33% 30.41 in 10.0 mi NNW 3.5 mph - N/A   Clear
8:53 AM 53.1 °F - 16.0 °F 23% 30.41 in 10.0 mi NNW 9.2 mph - N/A   Clear
9:53 AM 57.9 °F - 14.0 °F 18% 30.41 in 10.0 mi North 4.6 mph - N/A   Clear
10:53 AM 60.1 °F - 12.9 °F 16% 30.39 in 10.0 mi North 3.5 mph - N/A   Clear
11:53 AM 63.0 °F - 12.0 °F 14% 30.33 in 10.0 mi Calm Calm - N/A   Clear
12:53 PM 64.0 °F - 12.0 °F 13% 30.29 in 10.0 mi SE 3.5 mph - N/A   Clear
1:53 PM 64.9 °F - 12.9 °F 13% 30.26 in 10.0 mi South 3.5 mph - N/A   Clear
2:53 PM 64.0 °F - 12.0 °F 13% 30.25 in 10.0 mi Calm Calm - N/A   Clear
3:53 PM 63.0 °F - 14.0 °F 15% 30.24 in 10.0 mi Calm Calm - N/A   Clear
4:53 PM 62.1 °F - 14.0 °F 15% 30.24 in 10.0 mi Calm Calm - N/A   Clear
5:53 PM 60.1 °F - 17.1 °F 19% 30.24 in 10.0 mi Calm Calm - N/A   Clear
6:53 PM 55.9 °F - 19.0 °F 24% 30.24 in 10.0 mi NW 4.6 mph - N/A   Clear
7:53 PM 54.0 °F - 21.9 °F 29% 30.23 in 10.0 mi Calm Calm - N/A   Clear
8:53 PM 53.1 °F - 23.0 °F 31% - 10.0 mi West 4.6 mph - N/A   Clear
9:53 PM 53.1 °F - 21.0 °F 29% - 10.0 mi WNW 8.1 mph - N/A   Clear
10:53 PM 52.0 °F - 18.0 °F 26% - 10.0 mi NW 4.6 mph - N/A   Clear
11:53 PM 53.1 °F - 16.0 °F 23% - 10.0 mi Calm Calm - N/A   Clear